sat.trackr.live / text

‹ back to catalog

FLOCK 4G-23

NORAD 62647 · 2025-009AQ

PAYLOAD ACTIVE UNKNOWN

§ Identity

Operator
Country
US
Launch date
2025-01-14
Launch site
AFWTR
Launch vehicle
Mass (kg)
RCS (m²)

Purposes: earth_obs

External: N2YO · Heavens-Above · Gunter

§ Orbital elements

Epoch: 2026-09-19T11:47:16.810656Z

Period
93.51 min
Inclination
97.3859°
Eccentricity
0.0000361
Mean motion
15.39963062 rev/d
Perigee alt
446.0 km
Apogee alt
446.5 km
Semi-major
6,824.4 km
B*
9.5094e-4
RAAN
344.5517°
Arg perigee
255.3774°
Mean anomaly
104.7432°
Rev number
9,340

§ Raw data

FLOCK 4G-231 62647U 25009AQ  26262.49116679  .00037950  00000+0  95094-3 0  99952 62647  97.3859 344.5517 0000361 255.3774 104.7432 15.39963062 93401

JSON: /api/v1/satellites/62647 · /tle

For live sub-satellite position, see the globe view (requires WebGL).

§ Visibility from observer

Set your observer location to see the next 7 days of passes ≥ 10°. The values pass through the URL so the page stays shareable.

No JS? Fill the form by hand. The geolocation button needs JavaScript.